Weather History for Fort Stockton, TX

Change the Weather History Date:

Saturday, February 12, 2011

  Actual Average Record
Temperature  
Mean Temperature 49 °F -  
Max Temperature 70 °F 63 °F 81 °F (2000)
Min Temperature 28 °F 38 °F 24 °F (1999)
Degree Days  
Heating Degree Days 16    
Moisture  
Dew Point -2 °F    
Average Humidity 18    
Maximum Humidity 38    
Minimum Humidity 4    
Precipitation  
Precipitation 0.00 in - - ()
Sea Level Pressure  
Sea Level Pressure 30.31 in    
Wind  
Wind Speed 9 mph (SSW)    
Max Wind Speed 14 mph    
Max Gust Speed -    
Visibility 10 miles    
Events      
Averages and records for this station are not official NWS values.
T = Trace of Precipitation, MM = Missing Value Source: NWS Daily Summary

Daily Weather History Graph

Daily Weather History Graph

Search for Another Location

Airport:

Trip Planner

Search our weather history database for the weather conditions in past years. The results will help you decide how hot, cold, wet, or windy it might be!

Date:

Astronomy

Feb. 12, 2011 Rise Set
Actual Time 7:35 AM CST 6:36 PM CST
Civil Twilight 7:10 AM CST 7:01 PM CST
Nautical Twilight 6:42 AM CST 7:30 PM CST
Astronomical Twilight 6:13 AM CST 7:58 PM CST
Moon 12:57 PM CST (2/12) 2:35 AM CST (2/12)
Length of Visible Light 11h 50m
Length of Day
11h 01m
Waxing Gibbous, 64% of the Moon is Illuminated
Feb 12
Waxing Gibbous
Feb 18
Full
Feb 24
Last Quarter
Mar 4
New
Mar 12
First Quarter

Hourly Weather History & Observations

Time (CST) Temp. Windchill Dew Point Humidity Pressure Visibility Wind Dir Wind Speed Gust Speed Precip Events Conditions
12:53 AM 32.0 °F 23.6 °F 7.0 °F 35% 30.32 in 10.0 mi South 10.4 mph - N/A   Clear
1:53 AM 30.9 °F 22.8 °F 7.0 °F 37% 30.32 in 10.0 mi South 9.2 mph - N/A   Clear
2:53 AM 33.1 °F 23.4 °F 8.1 °F 35% 30.33 in 10.0 mi SW 13.8 mph - N/A   Clear
3:53 AM 34.0 °F 25.0 °F 7.0 °F 32% 30.33 in 10.0 mi SW 12.7 mph - N/A   Clear
4:53 AM 34.0 °F 24.6 °F 6.1 °F 31% 30.33 in 10.0 mi SW 13.8 mph - N/A   Clear
5:53 AM 28.9 °F - 5.0 °F 36% 30.35 in 10.0 mi Calm Calm - N/A   Clear
6:53 AM 28.0 °F 19.3 °F 5.0 °F 38% 30.39 in 10.0 mi WSW 9.2 mph - N/A   Clear
7:53 AM 30.9 °F 21.7 °F 5.0 °F 33% 30.41 in 10.0 mi SW 11.5 mph - N/A   Clear
9:53 AM 45.0 °F 43.5 °F 5.0 °F 19% 30.44 in 10.0 mi Variable 3.5 mph - N/A   Clear
10:53 AM 51.1 °F - 5.0 °F 15% 30.43 in 10.0 mi Calm Calm - N/A   Clear
11:53 AM 57.0 °F - 1.9 °F 11% 30.40 in 10.0 mi Variable 3.5 mph - N/A   Clear
12:53 PM 61.0 °F - -2.9 °F 8% 30.35 in 10.0 mi SSW 3.5 mph - N/A   Clear
1:53 PM 64.0 °F - -8.0 °F 5% 30.29 in 10.0 mi Variable 4.6 mph - N/A   Clear
2:53 PM 66.9 °F - -9.9 °F 4% 30.25 in 10.0 mi Variable 6.9 mph - N/A   Clear
3:53 PM 69.1 °F - -9.9 °F 4% 30.23 in 10.0 mi WNW 5.8 mph - N/A   Clear
4:53 PM 70.0 °F - -14.1 °F 4% 30.21 in 10.0 mi SW 5.8 mph - N/A   Clear
5:53 PM 68.0 °F - -11.9 °F 4% 30.22 in 10.0 mi SSW 6.9 mph - N/A   Clear
6:53 PM 57.0 °F - -9.9 °F 6% 30.24 in 10.0 mi South 5.8 mph - N/A   Clear
7:53 PM 52.0 °F - -8.0 °F 8% 30.25 in 10.0 mi SSW 12.7 mph - N/A   Clear
8:53 PM 48.9 °F - -9.0 °F 9% 30.26 in 10.0 mi SW 12.7 mph - N/A   Clear
9:53 PM 48.9 °F - -8.0 °F 9% 30.27 in 10.0 mi SSW 12.7 mph - N/A   Clear
10:53 PM 45.0 °F 38.9 °F -8.0 °F 11% 30.27 in 10.0 mi SW 12.7 mph - N/A   Clear
11:53 PM 46.0 °F 41.0 °F -6.0 °F 11% 30.24 in 10.0 mi South 10.4 mph - N/A   Clear